Resolute,

8:23 PM CST on January 19, 2017 (GMT -0600)
Resolute

Weather History for CYRB - February, 2013

Change the Weather History Date:

Saturday, February 16, 2013

  Actual Average Record
Temperature  
Mean Temperature -36 °F -  
Max Temperature -31 °F -19 °F -7 °F (2011)
Min Temperature -41 °F -32 °F -45 °F (2004)
Degree Days  
Heating Degree Days 101    
Moisture  
Dew Point -44 °F    
Average Humidity 65    
Maximum Humidity 75    
Minimum Humidity 47    
Precipitation  
Precipitation 0.00 in 0.01 in - ()
Sea Level Pressure  
Sea Level Pressure 30.36 in    
Wind  
Wind Speed 3 mph ()    
Max Wind Speed 9 mph    
Max Gust Speed -    
Visibility 11.6 miles    
Events Snow    
Averages and records for this station are not official NWS values.
T = Trace of Precipitation, MM = Missing Value Source: Averaged Metar Reports

Daily Weather History Graph

Daily Weather History Graph

Search for Another Location

Airport or City:

Trip Planner

Search our weather history database for the weather conditions in past years. The results will help you decide how hot, cold, wet, or windy it might be!

Date:

Astronomy

Feb. 16, 2013 Rise Set
Actual Time 9:41 AM CST 3:28 PM CST
Civil Twilight 8:03 AM CST 5:06 PM CST
Nautical Twilight 6:29 AM CST 6:40 PM CST
Astronomical Twilight 4:57 AM CST 8:14 PM CST
Moon No Moon Rise No Moon Set
Length of Visible Light 9h 02m
Length of Day
5h 47m
Waxing Crescent, 39% of the Moon is Illuminated
Feb 16
Waxing Crescent
Feb 17
First Quarter
Feb 25
Full
Mar 4
Last Quarter
Mar 11
New

Hourly Weather History & Observations

Time (CST) Temp. Windchill Dew Point Humidity Pressure Visibility Wind Dir Wind Speed Gust Speed Precip Events Conditions
12:00 AM -36 °F - -43 °F 50% 30.30 in 15 mi NNW 2.3 mph - - Snow Snow
12:00 AM -36.4 °F - -43.6 °F 67% 30.30 in 15.0 mi NNW 2.3 mph - N/A   Partly Cloudy
1:00 AM -34.6 °F -47.4 °F -41.8 °F 68% 30.30 in 15.0 mi NW 3.5 mph - N/A   Partly Cloudy
2:00 AM -32.8 °F - -41.8 °F 62% 30.31 in 15.0 mi Calm Calm - N/A   Partly Cloudy
3:00 AM -36.4 °F - -43.6 °F 67% 30.32 in 15.0 mi Calm Calm - N/A   Partly Cloudy
4:00 AM -36.4 °F - -41.8 °F 75% 30.33 in 15.0 mi NNW 2.3 mph - N/A   Partly Cloudy
5:00 AM -36.4 °F - -43.6 °F 67% 30.33 in 15.0 mi NW 2.3 mph - N/A   Clear
6:00 AM -36 °F - -43 °F 51% 30.34 in 15 mi NNW 4.6 mph - - Snow Snow
6:00 AM -36.4 °F -52.4 °F -43.6 °F 67% 30.34 in 15.0 mi NNW 4.6 mph - N/A   Clear
7:00 AM -40.0 °F - -45.4 °F 74% 30.35 in 15.0 mi Calm Calm - N/A   Partly Cloudy
8:00 AM -36.4 °F - -43.6 °F 67% 30.35 in 15.0 mi Calm Calm - N/A   Clear
9:00 AM -38.2 °F -51.5 °F -45.4 °F 67% 30.35 in 15.0 mi NNW 3.5 mph - N/A   Clear
10:00 AM -31.0 °F -43.3 °F -40.0 °F 62% 30.34 in 10.0 mi NNE 3.5 mph - N/A   Clear
11:00 AM -40.0 °F -53.5 °F -47.2 °F 67% 30.35 in 10.0 mi NNW 3.5 mph - N/A   Clear
12:00 PM -33 °F - -39 °F 54% 30.35 in 15 mi NNW 3.5 mph - - Snow Snow
12:00 PM -32.8 °F -45.3 °F -40.0 °F 68% 30.35 in 15.0 mi NNW 3.5 mph - N/A   Clear
1:00 PM -36.4 °F -56.8 °F -43.6 °F 67% 30.36 in 15.0 mi NNW 6.9 mph - N/A   Clear
2:00 PM -38.2 °F -58.9 °F -45.4 °F 67% 30.38 in 12.0 mi NW 6.9 mph - N/A   Clear
3:00 PM -34.6 °F -52.6 °F -41.8 °F 68% 30.39 in 15.0 mi NNW 5.8 mph - N/A   Clear
4:00 PM -38.2 °F -62.3 °F -45.4 °F 67% 30.40 in 8.0 mi NNW 9.2 mph - N/A   Partly Cloudy
5:00 PM -38.2 °F -62.3 °F -43.6 °F 74% 30.40 in 12.0 mi NW 9.2 mph - N/A   Partly Cloudy
6:00 PM -38 °F - -46 °F 47% 30.40 in 4 mi NNW 8.1 mph - - Snow Snow
6:00 PM -38.2 °F -60.7 °F -45.4 °F 67% 30.40 in 4.0 mi NNW 8.1 mph - N/A   Ice Crystals
7:00 PM -38.2 °F -62.3 °F -45.4 °F 67% 30.41 in 4.0 mi NW 9.2 mph - N/A   Ice Crystals
8:00 PM -38.2 °F -60.7 °F -45.4 °F 67% 30.41 in 6.0 mi NNW 8.1 mph - N/A   Ice Crystals
9:00 PM -36.4 °F -58.5 °F -43.6 °F 67% 30.42 in 4.0 mi NW 8.1 mph - N/A   Ice Crystals
10:00 PM -36.4 °F -56.8 °F -43.6 °F 67% 30.41 in 4.0 mi NNW 6.9 mph - N/A   Ice Crystals
11:00 PM -38.2 °F -58.9 °F -45.4 °F 67% 30.41 in 6.0 mi NW 6.9 mph - N/A   Ice Crystals